| time (UTC) | temp F | wind direction | speed MPH | gust MPH | rain 1hr in | rain 24hr in | rain mn in | humidity % | barometer mb |
| 20260508050040 | 60 | 234 | 4.0 | 6.0 | 0.00 | 0.00 | 0.00 | 1017.7 | |
| 20260508045526 | 60 | 241 | 4.0 | 6.0 | 0.00 | 0.00 | 0.00 | 1017.6 | |
| 20260508045026 | 60 | 254 | 4.0 | 6.0 | 0.00 | 0.00 | 0.00 | 1017.7 | |
| 20260508044543 | 60 | 255 | 4.0 | 6.0 | 0.00 | 0.00 | 0.00 | 1017.7 | |
| 20260508044026 | 60 | 236 | 4.0 | 6.0 | 0.00 | 0.00 | 0.00 | 1017.8 | |
| 20260508043523 | 60 | 272 | 4.0 | 6.0 | 0.00 | 0.00 | 0.00 | 1017.7 | |
| 20260508043042 | 60 | 243 | 3.0 | 6.0 | 0.00 | 0.00 | 0.00 | 1017.8 | |
| 20260508042523 | 60 | 250 | 2.0 | 6.0 | 0.00 | 0.00 | 0.00 | 1017.8 | |
| 20260508042023 | 60 | 213 | 3.0 | 6.0 | 0.00 | 0.00 | 0.00 | 1017.8 | |
| 20260508041548 | 60 | 246 | 3.0 | 6.0 | 0.00 | 0.00 | 0.00 | 1017.8 | |
| 20260508041024 | 60 | 254 | 4.0 | 6.0 | 0.00 | 0.00 | 0.00 | 1017.8 | |
| 20260508040524 | 60 | 245 | 3.0 | 6.0 | 0.00 | 0.00 | 0.00 | 1017.7 | |
| 20260508040039 | 60 | 245 | 4.0 | 6.0 | 0.00 | 0.00 | 0.00 | 1017.6 | |
| 20260508035523 | 60 | 245 | 3.0 | 6.0 | 0.00 | 0.00 | 0.00 | 1017.7 | |
| 20260508035023 | 60 | 245 | 2.0 | 4.0 | 0.00 | 0.00 | 0.00 | 1017.4 | |
| 20260508034540 | 61 | 239 | 2.0 | 4.0 | 0.00 | 0.00 | 0.00 | 1017.4 | |
| 20260508034023 | 61 | 219 | 1.0 | 3.0 | 0.00 | 0.00 | 0.00 | 1017.4 | |
| 20260508033523 | 61 | 210 | 1.0 | 4.0 | 0.00 | 0.00 | 0.00 | 1017.3 | |
| 20260508033039 | 61 | 221 | 1.0 | 4.0 | 0.00 | 0.00 | 0.00 | 1017.4 | |
| 20260508032529 | 61 | 231 | 1.0 | 4.0 | 0.00 | 0.00 | 0.00 | 1017.4 | |
| 20260508032022 | 61 | 207 | 1.0 | 4.0 | 0.00 | 0.00 | 0.00 | 1017.2 | |
| 20260508031553 | 62 | 210 | 1.0 | 4.0 | 0.00 | 0.00 | 0.00 | 1017.2 | |
| 20260508031023 | 62 | 227 | 1.0 | 4.0 | 0.00 | 0.00 | 0.00 | 1017.2 | |
| 20260508030523 | 63 | 219 | 1.0 | 4.0 | 0.00 | 0.00 | 0.00 | 1017.2 | |
| 20260508030046 | 64 | 236 | 1.0 | 4.0 | 0.00 | 0.00 | 0.00 | 1017.3 | |
| 20260508025526 | 63 | 239 | 2.0 | 4.0 | 0.00 | 0.00 | 0.00 | 1017.2 | |
| 20260508025026 | 64 | 223 | 2.0 | 3.0 | 0.00 | 0.00 | 0.00 | 1017.3 | |
| 20260508024536 | 63 | 243 | 2.0 | 3.0 | 0.00 | 0.00 | 0.00 | 1017.3 | |
| 20260508024027 | 64 | 240 | 1.0 | 3.0 | 0.00 | 0.00 | 0.00 | 1017.3 | |
| 20260508023527 | 65 | 205 | 1.0 | 4.0 | 0.00 | 0.00 | 0.00 | 1017.3 | |
| 20260508023046 | 67 | 236 | 1.0 | 4.0 | 0.00 | 0.00 | 0.00 | 1017.3 | |
| 20260508022526 | 69 | 227 | 1.0 | 2.0 | 0.00 | 0.00 | 0.00 | 1017.4 | |
| 20260508022026 | 68 | 99 | 0.0 | 6.0 | 0.00 | 0.00 | 0.00 | 1017.4 | |
| 20260508021541 | 69 | 259 | 1.0 | 6.0 | 0.00 | 0.00 | 0.00 | 1017.5 | |
| 20260508021026 | 69 | 345 | 1.0 | 5.0 | 0.00 | 0.00 | 0.00 | 1017.5 | |
| 20260508020526 | 70 | 99 | 1.0 | 5.0 | 0.00 | 0.00 | 0.00 | 1017.4 | |
| 20260508020037 | 70 | 60 | 1.0 | 5.0 | 0.00 | 0.00 | 0.00 | 1017.5 | |
| 20260508015527 | 70 | 281 | 1.0 | 5.0 | 0.00 | 0.00 | 0.00 | 1017.6 | |
| 20260508015027 | 70 | 236 | 1.0 | 5.0 | 0.00 | 0.00 | 0.00 | 1017.6 | |
| 20260508014537 | 69 | 39 | 1.0 | 5.0 | 0.00 | 0.00 | 0.00 | 1017.6 | |
| 20260508014026 | 70 | 290 | 1.0 | 4.0 | 0.00 | 0.00 | 0.00 | 1017.6 | |
| 20260508013526 | 71 | 39 | 0.0 | 2.0 | 0.00 | 0.00 | 0.00 | 1017.5 | |
| 20260508013037 | 71 | 295 | 0.0 | 2.0 | 0.00 | 0.00 | 0.00 | 1017.6 | |
| 20260508012526 | 71 | 183 | 0.0 | 5.0 | 0.00 | 0.00 | 0.00 | 1017.6 | |
| 20260508012027 | 72 | 112 | 0.0 | 5.0 | 0.00 | 0.00 | 0.00 | 1017.7 | |
| 20260508011551 | 70 | 275 | 2.0 | 5.0 | 0.00 | 0.00 | 0.00 | 1017.7 | |
| 20260508011026 | 77 | 355 | 1.0 | 3.0 | 0.00 | 0.00 | 0.00 | 1017.7 | |
| 20260508010526 | 82 | 255 | 1.0 | 3.0 | 0.00 | 0.00 | 0.00 | 1017.8 | |
| 20260508010044 | 83 | 0 | 1.0 | 3.0 | 0.00 | 0.00 | 0.00 | 1017.8 | |
| 20260508005526 | 84 | 141 | 1.0 | 4.0 | 0.00 | 0.00 | 0.00 | 1017.9 | |
| 20260508005026 | 85 | 302 | 1.0 | 4.0 | 0.00 | 0.00 | 0.00 | 1018.0 | |
| 20260508004539 | 84 | 243 | 1.0 | 4.0 | 0.00 | 0.00 | 0.00 | 1018.0 | |
| 20260508004025 | 86 | 355 | 1.0 | 5.0 | 0.00 | 0.00 | 0.00 | 1018.0 | |
| 20260508003531 | 83 | 3 | 1.0 | 6.0 | 0.00 | 0.00 | 0.00 | 1018.0 | |
| 20260508003036 | 84 | 281 | 1.0 | 6.0 | 0.00 | 0.00 | 0.00 | 1018.1 | |
| 20260508002529 | 83 | 295 | 0.0 | 6.0 | 0.00 | 0.00 | 0.00 | 1018.3 | |
| 20260508002026 | 82 | 311 | 1.0 | 6.0 | 0.00 | 0.00 | 0.00 | 1018.2 | |
| 20260508001543 | 80 | 306 | 1.0 | 5.0 | 0.00 | 0.00 | 0.00 | 1018.3 | |
| 20260508001026 | 80 | 60 | 2.0 | 7.0 | 0.00 | 0.00 | 0.00 | 1018.3 | |
| 20260508000526 | 82 | 68 | 2.0 | 7.0 | 0.00 | 0.00 | 0.00 | 1018.4 | |
| 20260508000044 | 82 | 285 | 1.0 | 6.0 | 0.00 | 0.00 | 0.00 | 1018.4 | |
| 20260507235527 | 83 | 99 | 1.0 | 5.0 | 0.00 | 0.00 | 0.00 | 1018.5 | |
| 20260507235028 | 82 | 149 | 1.0 | 6.0 | 0.00 | 0.00 | 0.00 | 1018.4 | |
| 20260507234540 | 82 | 284 | 1.0 | 6.0 | 0.00 | 0.00 | 0.00 | 1018.5 | |
| 20260507234027 | 83 | 292 | 1.0 | 7.0 | 0.00 | 0.00 | 0.00 | 1018.6 | |
| 20260507233526 | 82 | 268 | 1.0 | 7.0 | 0.00 | 0.00 | 0.00 | 1018.6 | |
| 20260507233040 | 80 | 285 | 2.0 | 7.0 | 0.00 | 0.00 | 0.00 | 1018.7 | |
| 20260507232531 | 83 | 31 | 1.0 | 7.0 | 0.00 | 0.00 | 0.00 | 1018.6 | |
| 20260507232028 | 82 | 0 | 1.0 | 7.0 | 0.00 | 0.00 | 0.00 | 1018.7 | |
| 20260507231545 | 82 | 278 | 2.0 | 7.0 | 0.00 | 0.00 | 0.00 | 1018.6 | |
| 20260507231026 | 82 | 99 | 1.0 | 6.0 | 0.00 | 0.00 | 0.00 | 1018.7 | |
| 20260507230527 | 81 | 66 | 1.0 | 8.0 | 0.00 | 0.00 | 0.00 | 1018.8 | |
| 20260507230040 | 81 | 55 | 2.0 | 8.0 | 0.00 | 0.00 | 0.00 | 1018.8 | |
| 20260507225527 | 80 | 116 | 1.0 | 8.0 | 0.00 | 0.00 | 0.00 | 1018.9 | |
| 20260507225027 | 79 | 64 | 2.0 | 8.0 | 0.00 | 0.00 | 0.00 | 1018.9 | |
| 20260507224550 | 80 | 299 | 1.0 | 6.0 | 0.00 | 0.00 | 0.00 | 1019.2 | |
| 20260507224027 | 80 | 0 | 2.0 | 6.0 | 0.00 | 0.00 | 0.00 | 1019.2 | |
| 20260507223527 | 80 | 278 | 1.0 | 7.0 | 0.00 | 0.00 | 0.00 | 1019.3 | |
| 20260507223047 | 79 | 316 | 2.0 | 7.0 | 0.00 | 0.00 | 0.00 | 1019.2 | |
| 20260507222526 | 80 | 46 | 2.0 | 7.0 | 0.00 | 0.00 | 0.00 | 1019.2 | |
| 20260507222027 | 79 | 112 | 1.0 | 6.0 | 0.00 | 0.00 | 0.00 | 1019.2 | |
| 20260507221539 | 80 | 268 | 1.0 | 4.0 | 0.00 | 0.00 | 0.00 | 1019.3 | |
| 20260507221030 | 81 | 268 | 1.0 | 6.0 | 0.00 | 0.00 | 0.00 | 1019.3 | |
| 20260507220527 | 80 | 141 | 1.0 | 6.0 | 0.00 | 0.00 | 0.00 | 1019.4 | |
| 20260507220038 | 78 | 288 | 2.0 | 6.0 | 0.00 | 0.00 | 0.00 | 1019.4 | |
| 20260507215527 | 76 | 268 | 1.0 | 5.0 | 0.00 | 0.00 | 0.00 | 1019.5 | |
| 20260507215027 | 76 | 252 | 1.0 | 5.0 | 0.00 | 0.00 | 0.00 | 1019.4 | |
| 20260507214539 | 75 | 280 | 1.0 | 5.0 | 0.00 | 0.00 | 0.00 | 1019.6 | |
| 20260507214026 | 76 | 0 | 1.0 | 4.0 | 0.00 | 0.00 | 0.00 | 1019.6 | |
| 20260507213529 | 76 | 39 | 1.0 | 5.0 | 0.00 | 0.00 | 0.00 | 1019.6 | |
| 20260507213048 | 75 | 0 | 1.0 | 5.0 | 0.00 | 0.00 | 0.00 | 1019.6 | |
| 20260507212527 | 72 | 280 | 1.0 | 7.0 | 0.00 | 0.00 | 0.00 | 1019.8 | |
| 20260507212027 | 72 | 307 | 1.0 | 7.0 | 0.00 | 0.00 | 0.00 | 1019.6 | |
| 20260507211539 | 71 | 22 | 2.0 | 7.0 | 0.00 | 0.00 | 0.00 | 1019.8 | |
| 20260507211026 | 73 | 317 | 1.0 | 6.0 | 0.00 | 0.00 | 0.00 | 1020.0 | |
| 20260507210527 | 73 | 105 | 1.0 | 9.0 | 0.00 | 0.00 | 0.00 | 1019.9 | |
| 20260507210105 | 72 | 288 | 2.0 | 9.0 | 0.00 | 0.00 | 0.00 | 1020.0 | |
| 20260507205527 | 70 | 322 | 1.0 | 9.0 | 0.00 | 0.00 | 0.00 | 1020.0 | |
| 20260507205027 | 72 | 355 | 1.0 | 5.0 | 0.00 | 0.00 | 0.00 | 1020.2 | |
| 20260507204537 | 70 | 26 | 1.0 | 5.0 | 0.00 | 0.00 | 0.00 | 1020.2 | |
| 20260507204026 | 69 | 68 | 1.0 | 8.0 | 0.00 | 0.00 | 0.00 | 1020.1 | |
| 20260507203527 | 69 | 227 | 1.0 | 8.0 | 0.00 | 0.00 | 0.00 | 1020.3 | |
| 20260507203037 | 71 | 77 | 1.0 | 6.0 | 0.00 | 0.00 | 0.00 | 1020.4 | |
| 20260507202526 | 71 | 195 | 1.0 | 6.0 | 0.00 | 0.00 | 0.00 | 1020.3 | |
| 20260507202026 | 70 | 355 | 1.0 | 6.0 | 0.00 | 0.00 | 0.00 | 1020.3 | |
| 20260507201543 | 70 | 227 | 1.0 | 5.0 | 0.00 | 0.00 | 0.00 | 1020.2 | |
| 20260507201029 | 70 | 158 | 2.0 | 7.0 | 0.00 | 0.00 | 0.00 | 1020.3 | |
| 20260507200527 | 71 | 136 | 1.0 | 7.0 | 0.00 | 0.00 | 0.00 | 1020.4 | |
| 20260507200052 | 70 | 99 | 1.0 | 5.0 | 0.00 | 0.00 | 0.00 | 1020.3 | |
| 20260507195527 | 70 | 241 | 1.0 | 4.0 | 0.00 | 0.00 | 0.00 | 1020.4 | |
| 20260507195028 | 71 | 183 | 1.0 | 5.0 | 0.00 | 0.00 | 0.00 | 1020.5 | |
| 20260507194538 | 69 | 136 | 2.0 | 6.0 | 0.00 | 0.00 | 0.00 | 1020.4 | |
| 20260507194026 | 69 | 255 | 2.0 | 6.0 | 0.00 | 0.00 | 0.00 | 1020.5 | |
| 20260507193533 | 70 | 99 | 1.0 | 4.0 | 0.00 | 0.00 | 0.00 | 1020.7 | |
| 20260507193102 | 69 | 341 | 1.0 | 5.0 | 0.00 | 0.00 | 0.00 | 1020.6 | |
| 20260507192528 | 70 | 268 | 1.0 | 5.0 | 0.00 | 0.00 | 0.00 | 1020.7 | |
| 20260507192028 | 70 | 158 | 1.0 | 6.0 | 0.00 | 0.00 | 0.00 | 1020.7 | |
| 20260507191537 | 71 | 12 | 1.0 | 6.0 | 0.00 | 0.00 | 0.00 | 1020.8 | |
| 20260507191027 | 72 | 122 | 2.0 | 5.0 | 0.00 | 0.00 | 0.00 | 1020.8 | |
| 20260507190527 | 70 | 252 | 1.0 | 5.0 | 0.00 | 0.00 | 0.00 | 1020.9 | |
| 20260507190039 | 69 | 263 | 1.0 | 6.0 | 0.00 | 0.00 | 0.00 | 1021.0 | |
| 20260507185528 | 68 | 131 | 2.0 | 6.0 | 0.00 | 0.00 | 0.00 | 1021.1 | |
| 20260507185028 | 69 | 109 | 1.0 | 5.0 | 0.00 | 0.00 | 0.00 | 1021.0 | |
| 20260507184540 | 69 | 302 | 1.0 | 6.0 | 0.00 | 0.00 | 0.00 | 1021.0 | |
| 20260507184026 | 70 | 124 | 1.0 | 6.0 | 0.00 | 0.00 | 0.00 | 1021.2 | |
| 20260507183530 | 70 | 304 | 1.0 | 5.0 | 0.00 | 0.00 | 0.00 | 1021.1 | |
| 20260507183040 | 70 | 255 | 1.0 | 5.0 | 0.00 | 0.00 | 0.00 | 1021.4 | |
| 20260507182527 | 69 | 28 | 1.0 | 5.0 | 0.00 | 0.00 | 0.00 | 1021.4 | |
| 20260507182026 | 68 | 248 | 1.0 | 5.0 | 0.00 | 0.00 | 0.00 | 1021.3 | |
| 20260507181537 | 69 | 241 | 1.0 | 5.0 | 0.00 | 0.00 | 0.00 | 1021.5 | |
| 20260507181029 | 69 | 338 | 1.0 | 4.0 | 0.00 | 0.00 | 0.00 | 1021.5 | |
| 20260507180526 | 68 | 338 | 1.0 | 6.0 | 0.00 | 0.00 | 0.00 | 1021.5 | |
| 20260507180043 | 67 | 64 | 2.0 | 6.0 | 0.00 | 0.00 | 0.00 | 1021.6 | |
| 20260507175526 | 67 | 49 | 1.0 | 6.0 | 0.00 | 0.00 | 0.00 | 1021.7 | |
| 20260507175028 | 63 | 291 | 2.0 | 5.0 | 0.00 | 0.00 | 0.00 | 1021.6 | |
| 20260507174536 | 69 | 0 | 1.0 | 5.0 | 0.00 | 0.00 | 0.00 | 1021.8 | |
| 20260507174025 | 68 | 268 | 1.0 | 6.0 | 0.00 | 0.00 | 0.00 | 1021.7 | |
| 20260507173526 | 65 | 322 | 2.0 | 6.0 | 0.00 | 0.00 | 0.00 | 1021.8 | |
| 20260507173101 | 67 | 99 | 1.0 | 4.0 | 0.00 | 0.00 | 0.00 | 1021.8 | |
| 20260507172526 | 67 | 236 | 1.0 | 4.0 | 0.00 | 0.00 | 0.00 | 1021.9 | |
| 20260507172025 | 67 | 268 | 1.0 | 4.0 | 0.00 | 0.00 | 0.00 | 1021.8 | |
| 20260507171538 | 67 | 268 | 1.0 | 4.0 | 0.00 | 0.00 | 0.00 | 1021.8 | |
| 20260507171027 | 68 | 278 | 1.0 | 4.0 | 0.00 | 0.00 | 0.00 | 1021.8 | |
| 20260507170527 | 66 | 268 | 1.0 | 4.0 | 0.00 | 0.00 | 0.00 | 1021.8 | |
| 20260507170038 | 66 | 311 | 1.0 | 3.0 | 0.00 | 0.00 | 0.00 | 1021.8 | |
| 20260507165526 | 66 | 268 | 0.0 | 3.0 | 0.00 | 0.00 | 0.00 | 1021.9 | |
| 20260507165029 | 62 | 259 | 1.0 | 5.0 | 0.00 | 0.00 | 0.00 | 1021.8 | |
| 20260507164538 | 61 | 90 | 0.0 | 5.0 | 0.00 | 0.00 | 0.00 | 1021.8 | |
| 20260507164029 | 58 | 254 | 2.0 | 5.0 | 0.00 | 0.00 | 0.00 | 1021.9 | |
| 20260507163526 | 63 | 243 | 1.0 | 5.0 | 0.00 | 0.00 | 0.00 | 1021.7 | |
| 20260507163038 | 60 | 0 | 1.0 | 4.0 | 0.00 | 0.00 | 0.00 | 1021.8 | |
| 20260507162525 | 58 | 311 | 1.0 | 4.0 | 0.00 | 0.00 | 0.00 | 1021.8 | |
| 20260507162027 | 57 | 302 | 1.0 | 4.0 | 0.00 | 0.00 | 0.00 | 1021.8 | |
| 20260507161557 | 58 | 311 | 1.0 | 4.0 | 0.00 | 0.00 | 0.00 | 1021.8 | |
| 20260507161025 | 58 | 311 | 1.0 | 4.0 | 0.00 | 0.00 | 0.00 | 1021.8 | |
| 20260507160525 | 59 | 0 | 0.0 | 2.0 | 0.00 | 0.00 | 0.00 | 1021.8 | |
| 20260507160057 | 58 | 268 | 0.0 | 3.0 | 0.00 | 0.00 | 0.00 | 1021.7 | |
| 20260507155528 | 58 | 0 | 1.0 | 3.0 | 0.00 | 0.00 | 0.00 | 1021.6 | |
| 20260507155025 | 59 | 0 | 0.0 | 3.0 | 0.00 | 0.00 | 0.00 | 1021.8 | |
| 20260507154537 | 56 | 227 | 0.0 | 3.0 | 0.00 | 0.00 | 0.00 | 1021.7 | |
| 20260507154024 | 55 | 0 | 0.0 | 2.0 | 0.00 | 0.00 | 0.00 | 1021.9 | |
| 20260507153524 | 55 | 205 | 0.0 | 3.0 | 0.00 | 0.00 | 0.00 | 1021.8 | |
| 20260507153036 | 55 | 0 | 0.0 | 4.0 | 0.00 | 0.00 | 0.00 | 1021.8 | |
| 20260507152523 | 54 | 216 | 1.0 | 4.0 | 0.00 | 0.00 | 0.00 | 1021.7 | |
| 20260507152026 | 53 | 9 | 0.0 | 4.0 | 0.00 | 0.00 | 0.00 | 1021.8 | |
| 20260507151536 | 53 | 331 | 1.0 | 4.0 | 0.00 | 0.00 | 0.00 | 1021.8 | |
| 20260507151024 | 53 | 268 | 0.0 | 3.0 | 0.00 | 0.00 | 0.00 | 1021.7 | |
| 20260507150524 | 53 | 0 | 0.0 | 3.0 | 0.00 | 0.00 | 0.00 | 1021.8 | |
| 20260507150040 | 53 | 116 | 0.0 | 3.0 | 0.00 | 0.00 | 0.00 | 1021.8 | |
| 20260507145523 | 52 | 141 | 1.0 | 6.0 | 0.00 | 0.00 | 0.00 | 1021.8 | |
| 20260507145029 | 51 | 291 | 2.0 | 6.0 | 0.00 | 0.00 | 0.00 | 1021.8 | |
| 20260507144548 | 52 | 49 | 1.0 | 5.0 | 0.00 | 0.00 | 0.00 | 1021.7 | |
| 20260507144027 | 52 | 0 | 0.0 | 8.0 | 0.00 | 0.00 | 0.00 | 1021.8 | |
| 20260507143524 | 50 | 0 | 2.0 | 8.0 | 0.00 | 0.00 | 0.00 | 1021.7 | |
| 20260507143045 | 50 | 286 | 4.0 | 8.0 | 0.00 | 0.00 | 0.00 | 1021.7 | |
| 20260507142525 | 50 | 268 | 2.0 | 5.0 | 0.00 | 0.00 | 0.00 | 1021.7 | |
| 20260507142024 | 50 | 283 | 2.0 | 6.0 | 0.00 | 0.00 | 0.00 | 1021.7 | |
| 20260507141544 | 50 | 281 | 1.0 | 8.0 | 0.00 | 0.00 | 0.00 | 1021.7 | |
| 20260507141026 | 49 | 293 | 1.0 | 9.0 | 0.00 | 0.00 | 0.00 | 1021.7 | |
| 20260507140528 | 49 | 285 | 3.0 | 9.0 | 0.00 | 0.00 | 0.00 | 1021.6 | |
| 20260507140043 | 49 | 293 | 3.0 | 8.0 | 0.00 | 0.00 | 0.00 | 1021.5 | |
| 20260507135524 | 49 | 288 | 3.0 | 8.0 | 0.00 | 0.00 | 0.00 | 1021.4 | |
| 20260507135025 | 49 | 282 | 5.0 | 8.0 | 0.00 | 0.00 | 0.00 | 1021.5 | |
| 20260507134537 | 49 | 292 | 2.0 | 7.0 | 0.00 | 0.00 | 0.00 | 1021.4 | |
| 20260507134027 | 49 | 283 | 2.0 | 5.0 | 0.00 | 0.00 | 0.00 | 1021.6 | |
| 20260507133525 | 49 | 268 | 3.0 | 8.0 | 0.00 | 0.00 | 0.00 | 1021.5 | |
| 20260507133038 | 48 | 355 | 4.0 | 8.0 | 0.00 | 0.00 | 0.00 | 1021.4 | |
| 20260507132524 | 48 | 282 | 4.0 | 9.0 | 0.00 | 0.00 | 0.00 | 1021.5 | |
| 20260507132024 | 48 | 285 | 3.0 | 10.0 | 0.00 | 0.00 | 0.00 | 1021.5 | |
| 20260507131537 | 48 | 274 | 5.0 | 10.0 | 0.00 | 0.00 | 0.00 | 1021.3 | |
| 20260507131024 | 48 | 297 | 5.0 | 10.0 | 0.00 | 0.00 | 0.00 | 1021.5 | |
| 20260507130526 | 49 | 301 | 4.0 | 10.0 | 0.00 | 0.00 | 0.00 | 1021.5 | |
| 20260507130041 | 48 | 283 | 7.0 | 10.0 | 0.00 | 0.00 | 0.00 | 1021.5 | |
| 20260507125523 | 49 | 288 | 5.0 | 11.0 | 0.00 | 0.00 | 0.00 | 1021.5 | |
| 20260507125026 | 49 | 322 | 4.0 | 11.0 | 0.00 | 0.00 | 0.00 | 1021.5 | |
| 20260507124540 | 49 | 268 | 4.0 | 10.0 | 0.00 | 0.00 | 0.00 | 1021.3 | |
| 20260507124023 | 49 | 286 | 5.0 | 10.0 | 0.00 | 0.00 | 0.00 | 1021.4 | |
| 20260507123524 | 49 | 285 | 6.0 | 10.0 | 0.00 | 0.00 | 0.00 | 1021.4 | |
| 20260507123043 | 49 | 295 | 4.0 | 10.0 | 0.00 | 0.00 | 0.00 | 1021.5 | |
| 20260507122525 | 49 | 306 | 5.0 | 11.0 | 0.00 | 0.00 | 0.00 | 1021.5 | |
| 20260507122026 | 49 | 282 | 6.0 | 11.0 | 0.00 | 0.00 | 0.00 | 1021.4 | |
| 20260507121538 | 49 | 290 | 6.0 | 10.0 | 0.00 | 0.00 | 0.00 | 1021.5 | |
| 20260507121024 | 50 | 286 | 4.0 | 11.0 | 0.00 | 0.00 | 0.00 | 1021.4 | |
| 20260507120523 | 50 | 286 | 6.0 | 11.0 | 0.00 | 0.00 | 0.00 | 1021.6 | |
| 20260507120044 | 50 | 279 | 2.0 | 10.0 | 0.00 | 0.00 | 0.00 | 1021.6 | |
| 20260507115523 | 50 | 295 | 4.0 | 10.0 | 0.00 | 0.00 | 0.00 | 1021.5 | |
| 20260507115023 | 50 | 292 | 4.0 | 10.0 | 0.00 | 0.00 | 0.00 | 1021.7 | |
| 20260507114545 | 50 | 99 | 5.0 | 10.0 | 0.00 | 0.00 | 0.00 | 1021.6 | |
| 20260507114029 | 50 | 319 | 4.0 | 9.0 | 0.00 | 0.00 | 0.00 | 1021.6 | |
| 20260507113527 | 50 | 276 | 3.0 | 9.0 | 0.00 | 0.00 | 0.00 | 1021.6 | |
| 20260507113038 | 50 | 268 | 4.0 | 9.0 | 0.00 | 0.00 | 0.00 | 1021.6 | |
| 20260507112524 | 50 | 290 | 3.0 | 8.0 | 0.00 | 0.00 | 0.00 | 1021.7 | |
| 20260507112024 | 51 | 0 | 1.0 | 10.0 | 0.00 | 0.00 | 0.00 | 1021.6 | |
| 20260507111545 | 51 | 39 | 3.0 | 10.0 | 0.00 | 0.00 | 0.00 | 1021.7 | |
| 20260507111023 | 50 | 259 | 5.0 | 9.0 | 0.00 | 0.00 | 0.00 | 1021.7 | |
| 20260507110523 | 51 | 277 | 4.0 | 9.0 | 0.00 | 0.00 | 0.00 | 1021.7 | |
| 20260507110038 | 51 | 169 | 3.0 | 9.0 | 0.00 | 0.00 | 0.00 | 1021.7 | |
| 20260507105525 | 51 | 170 | 2.0 | 8.0 | 0.00 | 0.00 | 0.00 | 1021.8 | |
| 20260507105023 | 51 | 282 | 3.0 | 6.0 | 0.00 | 0.00 | 0.00 | 1021.8 | |
| 20260507104544 | 51 | 286 | 1.0 | 7.0 | 0.00 | 0.00 | 0.00 | 1021.8 | |
| 20260507104023 | 51 | 280 | 1.0 | 10.0 | 0.00 | 0.00 | 0.00 | 1021.8 | |
| 20260507103526 | 51 | 243 | 3.0 | 10.0 | 0.00 | 0.00 | 0.00 | 1021.8 | |
| 20260507103040 | 51 | 305 | 3.0 | 11.0 | 0.00 | 0.00 | 0.00 | 1021.8 | |
| 20260507102525 | 51 | 278 | 5.0 | 11.0 | 0.00 | 0.00 | 0.00 | 1021.9 | |
| 20260507102026 | 51 | 39 | 5.0 | 11.0 | 0.00 | 0.00 | 0.00 | 1021.9 | |
| 20260507101543 | 51 | 39 | 4.0 | 11.0 | 0.00 | 0.00 | 0.00 | 1021.9 | |
| 20260507101027 | 51 | 276 | 2.0 | 10.0 | 0.00 | 0.00 | 0.00 | 1021.9 | |
| 20260507100525 | 51 | 288 | 2.0 | 10.0 | 0.00 | 0.00 | 0.00 | 1021.9 | |
| 20260507100037 | 51 | 192 | 2.0 | 10.0 | 0.00 | 0.00 | 0.00 | 1021.9 | |
| 20260507095524 | 51 | 308 | 4.0 | 10.0 | 0.00 | 0.00 | 0.00 | 1022.0 | |
| 20260507095029 | 51 | 292 | 4.0 | 9.0 | 0.00 | 0.00 | 0.00 | 1022.1 | |
| 20260507094541 | 52 | 0 | 1.0 | 8.0 | 0.00 | 0.00 | 0.00 | 1022.1 | |
| 20260507094027 | 52 | 304 | 2.0 | 8.0 | 0.00 | 0.00 | 0.00 | 1022.1 | |
| 20260507093523 | 52 | 324 | 1.0 | 10.0 | 0.00 | 0.00 | 0.00 | 1022.0 | |
| 20260507093043 | 52 | 274 | 3.0 | 10.0 | 0.00 | 0.00 | 0.00 | 1022.2 | |
| 20260507092526 | 52 | 297 | 2.0 | 8.0 | 0.00 | 0.00 | 0.00 | 1022.2 | |
| 20260507092023 | 52 | 317 | 3.0 | 10.0 | 0.00 | 0.00 | 0.00 | 1022.1 | |
| 20260507091540 | 52 | 355 | 3.0 | 12.0 | 0.00 | 0.00 | 0.00 | 1022.1 | |
| 20260507091023 | 52 | 311 | 5.0 | 12.0 | 0.00 | 0.00 | 0.00 | 1022.1 | |
| 20260507090525 | 52 | 288 | 3.0 | 9.0 | 0.00 | 0.00 | 0.00 | 1022.3 | |
| 20260507090042 | 52 | 268 | 1.0 | 11.0 | 0.00 | 0.00 | 0.00 | 1022.3 | |
| 20260507085527 | 52 | 53 | 3.0 | 11.0 | 0.00 | 0.00 | 0.00 | 1022.3 | |
| 20260507085024 | 52 | 0 | 3.0 | 11.0 | 0.00 | 0.00 | 0.00 | 1022.4 | |
| 20260507084541 | 52 | 259 | 1.0 | 12.0 | 0.00 | 0.00 | 0.00 | 1022.3 | |
| 20260507084028 | 52 | 252 | 5.0 | 12.0 | 0.00 | 0.00 | 0.00 | 1022.3 | |
| 20260507083526 | 52 | 293 | 3.0 | 11.0 | 0.00 | 0.00 | 0.00 | 1022.5 | |
| 20260507083039 | 52 | 262 | 5.0 | 11.0 | 0.00 | 0.00 | 0.00 | 1022.3 | |
| 20260507082524 | 52 | 280 | 4.0 | 11.0 | 0.00 | 0.00 | 0.00 | 1022.4 | |
| 20260507082023 | 52 | 309 | 5.0 | 12.0 | 0.00 | 0.00 | 0.00 | 1022.4 | |
| 20260507081538 | 52 | 276 | 6.0 | 12.0 | 0.00 | 0.00 | 0.00 | 1022.4 | |
| 20260507081025 | 52 | 284 | 6.0 | 12.0 | 0.00 | 0.00 | 0.00 | 1022.4 | |
| 20260507080526 | 52 | 286 | 4.0 | 12.0 | 0.00 | 0.00 | 0.00 | 1022.5 | |
| 20260507080040 | 52 | 281 | 7.0 | 12.0 | 0.00 | 0.00 | 0.00 | 1022.3 | |
| 20260507075525 | 52 | 280 | 5.0 | 14.0 | 0.00 | 0.00 | 0.00 | 1022.5 | |
| 20260507075025 | 52 | 218 | 6.0 | 14.0 | 0.00 | 0.00 | 0.00 | 1022.4 | |
| 20260507074539 | 52 | 290 | 5.0 | 11.0 | 0.00 | 0.00 | 0.00 | 1022.4 | |
| 20260507074026 | 52 | 285 | 5.0 | 11.0 | 0.00 | 0.00 | 0.00 | 1022.2 | |
| 20260507073525 | 52 | 290 | 7.0 | 11.0 | 0.00 | 0.00 | 0.00 | 1022.4 | |
| 20260507073039 | 52 | 280 | 6.0 | 11.0 | 0.00 | 0.00 | 0.00 | 1022.3 | |
| 20260507072527 | 52 | 278 | 4.0 | 13.0 | 0.00 | 0.00 | 0.00 | 1022.3 | |
| 20260507072027 | 52 | 293 | 6.0 | 13.0 | 0.00 | 0.00 | 0.00 | 1022.3 | |
| 20260507071536 | 52 | 286 | 7.0 | 13.0 | 0.00 | 0.00 | 0.00 | 1022.3 | |
| 20260507071025 | 52 | 295 | 8.0 | 13.0 | 0.00 | 0.00 | 0.00 | 1022.3 | |
| 20260507070526 | 52 | 329 | 5.0 | 13.0 | 0.00 | 0.00 | 0.00 | 1022.2 | |
| 20260507070037 | 52 | 306 | 8.0 | 13.0 | 0.00 | 0.00 | 0.00 | 1022.3 | |
| 20260507065526 | 53 | 297 | 7.0 | 12.0 | 0.00 | 0.00 | 0.00 | 1022.3 | |
| 20260507065027 | 53 | 283 | 7.0 | 12.0 | 0.00 | 0.00 | 0.00 | 1022.4 | |
| 20260507064550 | 53 | 286 | 7.0 | 15.0 | 0.00 | 0.00 | 0.00 | 1022.3 | |
| 20260507064023 | 53 | 288 | 7.0 | 15.0 | 0.00 | 0.00 | 0.00 | 1022.3 | |
| 20260507063527 | 53 | 282 | 7.0 | 12.0 | 0.00 | 0.00 | 0.00 | 1022.3 | |
| 20260507063037 | 53 | 329 | 5.0 | 12.0 | 0.00 | 0.00 | 0.00 | 1022.5 | |
| 20260507062527 | 53 | 283 | 7.0 | 14.0 | 0.00 | 0.00 | 0.00 | 1022.4 | |
| 20260507062026 | 53 | 291 | 7.0 | 15.0 | 0.00 | 0.00 | 0.00 | 1022.3 | |
| 20260507061538 | 53 | 300 | 6.0 | 15.0 | 0.00 | 0.00 | 0.00 | 1022.4 | |
| 20260507061023 | 53 | 297 | 5.0 | 13.0 | 0.00 | 0.00 | 0.00 | 1022.3 | |
| 20260507060525 | 53 | 281 | 9.0 | 15.0 | 0.00 | 0.00 | 0.00 | 1022.3 | |
| 20260507060037 | 53 | 280 | 8.0 | 15.0 | 0.00 | 0.00 | 0.00 | 1022.4 | |
| 20260507055524 | 53 | 292 | 7.0 | 14.0 | 0.00 | 0.00 | 0.00 | 1022.4 | |
| 20260507055024 | 54 | 275 | 7.0 | 12.0 | 0.00 | 0.00 | 0.00 | 1022.2 | |
| 20260507054540 | 54 | 275 | 5.0 | 12.0 | 0.00 | 0.00 | 0.00 | 1022.3 | |
| 20260507054029 | 54 | 99 | 3.0 | 11.0 | 0.00 | 0.00 | 0.00 | 1022.4 | |
| 20260507053529 | 54 | 283 | 5.0 | 12.0 | 0.00 | 0.00 | 0.00 | 1022.2 | |
| 20260507053044 | 54 | 286 | 5.0 | 15.0 | 0.00 | 0.00 | 0.00 | 1022.2 | |
| 20260507052528 | 54 | 278 | 9.0 | 15.0 | 0.00 | 0.00 | 0.00 | 1022.1 | |
| 20260507052028 | 54 | 279 | 7.0 | 15.0 | 0.00 | 0.00 | 0.00 | 1022.3 | |
| 20260507051538 | 55 | 285 | 5.0 | 12.0 | 0.00 | 0.00 | 0.00 | 1022.3 | |
| 20260507051030 | 55 | 298 | 3.0 | 12.0 | 0.00 | 0.00 | 0.00 | 1022.2 | |
| 20260507050527 | 55 | 0 | 5.0 | 12.0 | 0.00 | 0.00 | 0.00 | 1022.2 |